Cavalier, ND

11:21 PM CST on December 17, 2017 (GMT -0600)
Cavalier

Weather History for K2C8 - October, 2012

Change the Weather History Date:

Wednesday, October 17, 2012

  Actual Average (KGAF) Record (KGAF)
Temperature  
Mean Temperature 50 °F -  
Max Temperature 53 °F 53 °F 79 °F (1963)
Min Temperature 48 °F 31 °F 3 °F (1952)
Degree Days  
Heating Degree Days 14    
Moisture  
Dew Point 50 °F    
Average Humidity 95    
Maximum Humidity 100    
Minimum Humidity 77    
Precipitation  
Precipitation 1.29 in - - ()
Sea Level Pressure  
Sea Level Pressure 29.13 in    
Wind  
Wind Speed 8 mph (West)    
Max Wind Speed 18 mph    
Max Gust Speed 24 mph    
Visibility 5 miles    
Events Rain    
Averages and records for this station are not official NWS values.
T = Trace of Precipitation, MM = Missing Value Source: NWS Daily Summary

Daily Weather History Graph

Daily Weather History Graph

Search for Another Location

Airport or City:

Trip Planner

Search our weather history database for the weather conditions in past years. The results will help you decide how hot, cold, wet, or windy it might be!

Date:

Astronomy

Oct. 17, 2012 Rise Set
Actual Time 7:54 AM CDT 6:35 PM CDT
Civil Twilight 7:22 AM CDT 7:07 PM CDT
Nautical Twilight 6:46 AM CDT 7:44 PM CDT
Astronomical Twilight 6:09 AM CDT 8:20 PM CDT
Moon 10:46 AM CDT (10/17) 7:56 PM CDT (10/17)
Length of Visible Light 11h 45m
Length of Day
10h 41m
Waxing Crescent, 7% of the Moon is Illuminated
Oct 17
Waxing Crescent
Oct 21
First Quarter
Oct 29
Full
Nov 6
Last Quarter
Nov 13
New

Hourly Weather History & Observations

Time (CDT) Temp. Dew Point Humidity Pressure Visibility Wind Dir Wind Speed Gust Speed Precip Events Conditions
12:15 AM 53.6 °F 46.4 °F 77% 29.22 in 10.0 mi SSE 5.8 mph - N/A   Clear
12:35 AM 53.6 °F 46.4 °F 77% 29.21 in 10.0 mi SSE 5.8 mph - N/A   Clear
12:55 AM 53.6 °F 46.4 °F 77% 29.20 in 10.0 mi South 6.9 mph - N/A   Clear
1:15 AM 53.6 °F 46.4 °F 77% 29.20 in 10.0 mi South 8.1 mph - N/A   Clear
1:35 AM 53.6 °F 46.4 °F 77% 29.20 in 10.0 mi SSW 6.9 mph - N/A   Mostly Cloudy
1:55 AM 53.6 °F 46.4 °F 77% 29.20 in 10.0 mi South 6.9 mph - N/A   Mostly Cloudy
2:15 AM 53.6 °F 46.4 °F 77% 29.19 in 10.0 mi SSW 6.9 mph - N/A   Partly Cloudy
2:35 AM 53.6 °F 46.4 °F 77% 29.19 in 10.0 mi South 8.1 mph - N/A   Partly Cloudy
2:55 AM 53.6 °F 46.4 °F 77% 29.19 in 10.0 mi South 6.9 mph - N/A   Clear
3:15 AM 51.8 °F 46.4 °F 82% 29.18 in 10.0 mi South 3.5 mph - N/A   Clear
3:35 AM 51.8 °F 46.4 °F 82% 29.17 in 10.0 mi South 4.6 mph - N/A   Scattered Clouds
3:55 AM 51.8 °F 46.4 °F 82% 29.17 in 10.0 mi South 4.6 mph - N/A   Scattered Clouds
4:15 AM 51.8 °F 46.4 °F 82% 29.16 in 10.0 mi SE 4.6 mph - N/A   Clear
4:35 AM 51.8 °F 48.2 °F 88% 29.17 in 10.0 mi South 5.8 mph - N/A   Clear
4:55 AM 51.8 °F 48.2 °F 88% 29.17 in 6.0 mi SE 4.6 mph - N/A Rain Light Rain
5:15 AM 51.8 °F 50.0 °F 94% 29.17 in 6.0 mi SSE 4.6 mph - N/A Rain Light Rain
5:35 AM 50.0 °F 50.0 °F 100% 29.16 in 5.0 mi Calm Calm - N/A Rain Light Rain
5:55 AM 50.0 °F 50.0 °F 100% 29.16 in 5.0 mi South 3.5 mph - N/A Rain Light Rain
6:15 AM 50.0 °F 50.0 °F 100% 29.16 in 5.0 mi SW 4.6 mph - N/A Rain Light Rain
6:35 AM 53.6 °F 53.6 °F 100% 29.15 in 7.0 mi SW 6.9 mph - N/A Rain Light Rain
6:55 AM 53.6 °F 53.6 °F 100% 29.12 in 5.0 mi West 13.8 mph - N/A Rain Light Rain
7:15 AM 53.6 °F 53.6 °F 100% 29.12 in 10.0 mi West 12.7 mph - N/A   Scattered Clouds
7:35 AM 53.6 °F 53.6 °F 100% 29.13 in 10.0 mi West 5.8 mph - N/A Rain Light Rain
7:55 AM 53.6 °F 53.6 °F 100% 29.14 in 6.0 mi SE 3.5 mph - N/A   Mostly Cloudy
8:15 AM 51.8 °F 51.8 °F 100% 29.14 in 3.0 mi ESE 4.6 mph - N/A Rain Light Rain
8:35 AM 51.8 °F 51.8 °F 100% 29.14 in 4.0 mi SSE 3.5 mph - N/A Rain Light Rain
8:55 AM 51.8 °F 51.8 °F 100% 29.15 in 4.0 mi Calm Calm - N/A Rain Light Rain
9:15 AM 51.8 °F 51.8 °F 100% 29.15 in 5.0 mi WSW 5.8 mph - N/A   Overcast
9:35 AM 50.0 °F 50.0 °F 100% 29.14 in 8.0 mi West 9.2 mph - N/A Rain Light Rain
9:55 AM 50.0 °F 50.0 °F 100% 29.14 in 5.0 mi West 6.9 mph - N/A Rain Light Rain
10:15 AM 50.0 °F 50.0 °F 100% 29.14 in 4.0 mi Calm Calm - N/A Rain Light Rain
10:35 AM 50.0 °F 50.0 °F 100% 29.13 in 3.0 mi NW 4.6 mph - N/A Rain Light Rain
10:55 AM 50.0 °F 50.0 °F 100% 29.13 in 2.5 mi West 3.5 mph - N/A Rain Light Rain
11:15 AM 50.0 °F 50.0 °F 100% 29.13 in 4.0 mi WSW 3.5 mph - N/A Rain Light Rain
11:35 AM 50.0 °F 50.0 °F 100% 29.13 in 3.0 mi WNW 3.5 mph - 0.01 in Rain Light Rain
11:55 AM 50.0 °F 50.0 °F 100% 29.12 in 3.0 mi WNW 5.8 mph - 0.02 in Rain Light Rain
12:15 PM 50.0 °F 50.0 °F 100% 29.12 in 3.0 mi West 6.9 mph - N/A Rain Light Rain
12:35 PM 50.0 °F 50.0 °F 100% 29.11 in 3.0 mi WNW 6.9 mph - 0.01 in Rain Light Rain
1:15 PM 50.0 °F 50.0 °F 100% 29.10 in 2.0 mi WNW 10.4 mph - 0.03 in Rain Rain
1:35 PM 50.0 °F 50.0 °F 100% 29.10 in 2.0 mi WNW 10.4 mph - 0.05 in Rain Light Rain
1:55 PM 50.0 °F 50.0 °F 100% 29.09 in 2.5 mi NW 11.5 mph - 0.08 in Rain Light Rain
2:15 PM 50.0 °F 50.0 °F 100% 29.09 in 2.0 mi NW 11.5 mph - 0.01 in Rain Light Rain
2:35 PM 51.8 °F 51.8 °F 100% 29.09 in 2.0 mi NW 9.2 mph - 0.03 in Rain Light Rain
2:55 PM 51.8 °F 51.8 °F 100% 29.08 in 3.0 mi NW 11.5 mph - 0.07 in Rain Light Rain
3:15 PM 50.0 °F 50.0 °F 100% 29.08 in 1.5 mi NW 16.1 mph 20.7 mph 0.02 in Rain Rain
3:35 PM 50.0 °F 50.0 °F 100% 29.08 in 1.5 mi NW 16.1 mph 21.9 mph 0.07 in Rain Rain
3:55 PM 50.0 °F 50.0 °F 100% 29.08 in 1.5 mi NW 12.7 mph 19.6 mph 0.12 in Rain Rain
4:15 PM 50.0 °F 50.0 °F 100% 29.08 in 2.0 mi NW 18.4 mph 23.0 mph 0.03 in Rain Light Rain
4:35 PM 50.0 °F 50.0 °F 100% 29.08 in 2.5 mi NW 17.3 mph 21.9 mph 0.05 in Rain Light Rain
4:55 PM 50.0 °F 50.0 °F 100% 29.09 in 1.8 mi NW 12.7 mph 20.7 mph 0.11 in Rain Rain
5:15 PM 50.0 °F 50.0 °F 100% 29.09 in 1.8 mi NW 11.5 mph - 0.04 in Rain Rain
5:35 PM 50.0 °F 50.0 °F 100% 29.09 in 1.5 mi NW 13.8 mph 24.2 mph 0.10 in Rain Rain
5:55 PM 50.0 °F 48.2 °F 94% 29.09 in 2.0 mi NW 13.8 mph 23.0 mph 0.16 in Rain Rain
6:15 PM 50.0 °F 48.2 °F 94% 29.09 in 1.8 mi NW 15.0 mph 21.9 mph 0.02 in Rain Rain
6:55 PM 48.2 °F 48.2 °F 100% 29.09 in 3.0 mi NW 16.1 mph 21.9 mph 0.13 in Rain Rain
7:15 PM 48.2 °F 48.2 °F 100% 29.09 in 5.0 mi NW 12.7 mph - N/A Rain Light Rain
7:35 PM 48.2 °F 48.2 °F 100% 29.09 in 2.5 mi NW 12.7 mph - 0.02 in Rain Light Rain
7:55 PM 50.0 °F 50.0 °F 100% 29.09 in 4.0 mi NW 12.7 mph - 0.04 in Rain Light Rain
8:15 PM 50.0 °F 50.0 °F 100% 29.08 in 4.0 mi NW 13.8 mph - 0.02 in Rain Light Rain
8:35 PM 50.0 °F 50.0 °F 100% 29.08 in 2.5 mi NW 11.5 mph - 0.06 in Rain Rain
8:55 PM 50.0 °F 50.0 °F 100% 29.09 in 2.5 mi NNW 13.8 mph 18.4 mph 0.11 in Rain Rain
9:15 PM 50.0 °F 50.0 °F 100% 29.09 in 1.8 mi NNW 13.8 mph - 0.06 in Rain Rain
9:35 PM 50.0 °F 50.0 °F 100% 29.09 in 1.8 mi NNW 13.8 mph - 0.17 in Rain Rain
9:55 PM 50.0 °F 50.0 °F 100% 29.09 in 2.5 mi NNW 17.3 mph 21.9 mph 0.22 in Rain Rain
10:15 PM 50.0 °F 50.0 °F 100% 29.09 in 1.2 mi NW 12.7 mph - 0.06 in Rain Light Rain
10:35 PM 50.0 °F 50.0 °F 100% 29.09 in 2.5 mi NNW 17.3 mph 23.0 mph 0.09 in Rain Rain
10:55 PM 50.0 °F 50.0 °F 100% 29.10 in 2.5 mi NNW 17.3 mph 24.2 mph 0.14 in Rain Light Rain
11:15 PM 50.0 °F 50.0 °F 100% 29.10 in 2.5 mi NNW 16.1 mph 23.0 mph 0.03 in Rain Light Rain
11:35 PM 50.0 °F 50.0 °F 100% 29.10 in 4.0 mi NNW 16.1 mph 24.2 mph 0.04 in Rain Light Rain
11:55 PM 50.0 °F 50.0 °F 100% 29.10 in 4.0 mi NNW 16.1 mph 24.2 mph 0.08 in Rain Light Rain